GLOBALSTAR M054 [-]

Last updated on July 6, 2021, 3:36 p.m. UTC

1 25885U 99043C   21187.07822250 -.00000087  00000-0 -39415-3 0  9990
2 25885  52.0158  80.8480 0003482 193.0143 307.6867 11.39186640955024
UTC
Height (km)
Latitude
Longitude
Inclination
Orbital Period
UTC large
Height (km)
Speed (km/s)
/
Latitude / Longitude
Inclination (degrees)
Orbital Period (minutes)
Azimuth
Elevation
Range (km)
Doppler Factor
iOS Compass Heading
iOS Angle